STARLINK-34429

Last updated on Thu Jul 03 2025 00:02:07 GMT+0000 (Coordinated Universal Time)

1 64464U 25130AC 25183.58335648 -.00090293 00000+0 -61802-3 0 9990 2 64464 53.1572 179.7083 0000977 86.6207 64.8494 15.74219275 3502
UTC large
Height (km)
Speed (km/s)
/
Latitude / Longitude
Inclination (degrees)
Orbital Period (minutes)
Azimuth
Elevation
Range (km)
Doppler Factor

Next 0 passes for location: London (51.5072 / 0.1276)

Sorry there are no passes over London.